Location: Nemiskam
(49.4820°N, 111.2775°W)
Time: 09:26:55
(UTC+00:00)

Envisat - Pass Details

Date: 29 November 2022
Orbit: 763 x 765 km, 98.2° (Epoch: 28 January)

Event Time Altitude Azimuth Distance (km) Brightness Sun altitude
Rises 11:49:01 0° 14° (NNE) 3,246 6.4 -29.8°
Reaches altitude 10° 11:51:20 10° 15° (NNE) 2,315 5.6 -29.4°
Enters shadow 11:54:35 41° 17° (NNE) 1,113 3.9 -28.9°
